Simultaneous Nadir Overpasses (SNOs) Predictions

Prediction of SNOs between NPP and TERRA Satellite Orbit:

Table of predicted SNOs for the next 14.0 days since TLE Epoch: 10/28/2017
Index Date (NPP) Time (NPP) Lat,Lon (NPP) SZA (NPP ) Date (TERRA) Time (TERRA) Lat,Lon (TERRA) SZA (TERRA ) Distance(km) Time Diff (sec)
1 10/28/2017 10:39:52 68.43, 18.68 81.59 10/28/2017 10:40:32 68.42, 18.69 81.58 1.50 40
2 10/28/2017 11:30:33 -68.30,-173.84 98.52 10/28/2017 11:30:02 -68.32,-173.79 98.51 2.25 31
3 10/31/2017 02:06:16 -69.26, -33.98 96.72 10/31/2017 02:07:24 -69.12, -32.19 96.83 72.39 68
4 10/31/2017 02:56:46 68.38, 134.51 82.42 10/31/2017 02:57:02 68.39, 134.54 82.44 2.01 16
5 10/31/2017 03:47:27 -68.25, -58.00 97.70 10/31/2017 03:46:33 -68.24, -58.01 97.71 1.14 54
6 11/02/2017 18:22:55 -68.46, 82.86 96.66 11/02/2017 18:24:05 -68.47, 82.87 96.65 0.74 70
7 11/02/2017 19:13:39 68.33,-109.66 83.23 11/02/2017 19:13:32 68.35,-109.63 83.25 2.02 7
8 11/02/2017 20:04:17 -68.04, 58.03 97.05 11/02/2017 20:03:05 -68.09, 57.69 97.02 15.27 72
9 11/05/2017 10:39:49 -68.42,-161.31 95.88 11/05/2017 10:40:37 -68.40,-161.34 95.89 1.95 48
10 11/05/2017 11:30:33 68.29, 6.16 84.02 11/05/2017 11:30:04 68.28, 6.16 84.00 1.04 29
11 11/05/2017 12:20:57 -67.24, 174.77 97.01 11/05/2017 12:19:50 -67.29, 172.66 97.00 90.95 67
12 11/08/2017 02:06:18 69.37, 145.84 85.85 11/08/2017 02:07:25 69.24, 147.95 85.76 84.26 67
13 11/08/2017 02:56:43 -68.37, -45.49 95.13 11/08/2017 02:57:09 -68.37, -45.51 95.13 1.00 26
14 11/08/2017 03:47:27 68.25, 121.98 84.77 11/08/2017 03:46:36 68.25, 121.99 84.76 0.71 51
15 11/10/2017 18:22:58 68.59, -97.32 85.84 11/10/2017 18:24:10 68.52, -97.09 85.78 11.93 72
16 11/10/2017 19:13:37 -68.34, 70.33 94.41 11/10/2017 19:13:42 -68.32, 70.29 94.43 2.67 5
17 11/10/2017 20:04:21 68.22,-122.21 85.49 11/10/2017 20:03:09 68.20,-122.21 85.46 2.71 72




NCC Satellite Simultaneous Nadir Overpasses (SNOs) Prediction Service
